Tracking 28794 objects as of 19-Apr-2024
HD Live streaming from Space Station
objects crossing your sky now

COSMOS 1522

Track COSMOS 1522 now!
10-day predictions
COSMOS 1522 is classified as:


NORAD ID: 14611
Int'l Code: 1984-001A
Perigee: 1,468.0 km
Apogee: 1,500.1 km
Inclination: 74.0 °
Period: 115.5 minutes
Semi major axis: 7855 km
RCS: 0.7164 m2 (medium)
Launch date: January 5, 1984
Source: Commonwealth of Independent States (former USSR) (CIS)
Launch site: PLESETSK MISSILE AND SPACE COMPLEX (PKMTR)
Your satellite tracking list
Your tracking list is empty




NASA's NSSDC Master Catalog

Two Line Element Set (TLE):
1 14611U 84001A   24109.91163852 -.00000012  00000-0  30147-4 0  9990
2 14611  74.0120  27.0426 0020438 278.2704 149.6069 12.47046729833974
Source of the keplerian elements: AFSPC